Home > Weather > Mülheim > Past weeks

Flag for Germany Past Weather in Mülheim, North Rhine-Westphalia, Germany — Yesterday and Last 2 Weeks

Now
66 °F

Broken clouds.


Feels Like: 66 °F
Forecast: 55 / 65 °F
Wind: 10 mph from South

Location: Koeln / Bonn

Current Time: Jul 1, 2016 at 10:15:13 AM

Latest Report: Jul 1, 2016 at 9:20 AM


Visibility: N/A

Pressure: 29.95 "Hg

Humidity: 83%

Dew Point: 61 °F

Location of MülheimLocation

Past Weather in Mülheim — Graph

°F

Mülheim Temperature Yesterday

Maximum temperature yesterday: 72 °F (at 4:20 PM)
Minimum temperature yesterday: 59 °F (at 2:20 AM)
Average temperature yesterday: 65 °F

High & Low Weather Summary for the Past Weeks

 TemperatureHumidityPressure
High91 °F (Jun 23, 3:20 PM)100% (Jun 17, 12:50 AM)30.27 "Hg (Jun 17, 12:50 AM)
Low45 °F (Jun 20, 3:20 AM)41% (Jun 23, 5:20 PM)29.56 "Hg (Jun 16, 7:20 PM)
Average64 °F80%30.01 "Hg
* Reported Jun 16 9:20 AM — Jul 1 9:20 AM, Mülheim, Weather by CustomWeather, © 2016

Note: Actual official high and low records may vary slightly from our data, if they occured in-between our weather recording intervals... More about our weather records

Advertising

Mülheim Weather History for the Previous 24 Hours

Scroll right to see more
 ConditionsComfort  
Time TempWeatherWind HumidityBarometerVisibility
9:20 AM
Fri, Jul 1
66 °FBroken clouds.10 mph83%29.95 "HgN/A
8:50 AM64 °FPartly sunny.8 mph88%29.95 "HgN/A
8:20 AM64 °FPartly sunny.8 mph88%29.95 "HgN/A
7:50 AM64 °FPartly sunny.8 mph88%29.95 "HgN/A
7:20 AM64 °FBroken clouds.7 mph88%29.95 "HgN/A
6:50 AM63 °FBroken clouds.6 mph94%29.95 "HgN/A
6:20 AM63 °FSprinkles. Passing clouds.7 mph94%29.95 "HgN/A
5:50 AM63 °FScattered showers. Passing clouds.7 mph94%29.95 "HgN/A
5:20 AM63 °FPassing clouds.7 mph94%29.95 "HgN/A
4:50 AM63 °FSprinkles. Passing clouds.6 mph94%29.92 "HgN/A
4:20 AM63 °FSprinkles. Passing clouds.7 mph94%29.92 "HgN/A
3:50 AM63 °FPartly cloudy.8 mph94%29.95 "HgN/A
3:20 AM61 °FClear.7 mph100%29.95 "Hg10 mi
2:50 AM63 °FClear.7 mph94%29.95 "Hg10 mi
2:20 AM63 °FClear.7 mph94%29.95 "Hg10 mi
1:50 AM63 °FClear.5 mph94%29.95 "Hg10 mi
1:20 AM63 °FSprinkles. Passing clouds.7 mph94%29.95 "HgN/A
12:50 AM63 °FPassing clouds.5 mph94%29.95 "HgN/A
12:20 AM63 °FScattered showers. Passing clouds.6 mph94%29.95 "HgN/A
11:50 PM
Thu, Jun 30
63 °FSprinkles. Partly cloudy.5 mph94%29.98 "HgN/A
11:20 PM64 °FRain showers. Passing clouds.6 mph88%29.95 "Hg5 mi
10:50 PM64 °FRain showers. Partly cloudy.8 mph83%29.95 "HgN/A
10:20 PM64 °FScattered showers. Partly sunny.8 mph88%29.95 "HgN/A
9:50 PM64 °FSprinkles. Partly sunny.6 mph88%29.95 "HgN/A
9:20 PM64 °FScattered showers. Broken clouds.3 mph88%29.92 "HgN/A
8:50 PM66 °FPartly sunny.3 mph83%29.92 "HgN/A
8:20 PM66 °FSprinkles. Partly sunny.10 mph78%29.92 "HgN/A
7:50 PM70 °FSprinkles. Broken clouds.8 mph69%29.92 "HgN/A
7:20 PM70 °FBroken clouds.3 mph69%29.92 "HgN/A
6:50 PM70 °FBroken clouds.2 mph69%29.92 "HgN/A
6:20 PM70 °FBroken clouds.3 mph69%29.92 "HgN/A
5:50 PM70 °FSprinkles. Partly sunny.6 mph69%29.92 "HgN/A
5:20 PM70 °FScattered showers. Partly sunny.9 mph64%29.92 "HgN/A
4:50 PM70 °FBroken clouds.9 mph64%29.92 "HgN/A
4:20 PM72 °FPartly sunny.10 mph61%29.92 "HgN/A
3:50 PM68 °FPartly sunny.6 mph69%29.92 "HgN/A
3:20 PM68 °FPartly sunny.7 mph69%29.92 "HgN/A
2:50 PM68 °FPartly sunny.8 mph69%29.92 "HgN/A
2:20 PM68 °FPartly sunny.7 mph69%29.92 "HgN/A
1:50 PM68 °FPartly sunny.9 mph64%29.92 "HgN/A
1:20 PM70 °FPartly sunny.6 mph60%29.92 "HgN/A
12:50 PM68 °FPartly sunny.10 mph64%29.92 "HgN/A
12:20 PM66 °FPartly sunny.7 mph68%29.92 "HgN/A
11:50 AM66 °FPartly sunny.10 mph68%29.92 "HgN/A
11:20 AM66 °FPartly sunny.10 mph68%29.92 "HgN/A
10:50 AM64 °FPartly sunny.6 mph73%29.92 "HgN/A
10:20 AM64 °FPartly sunny.7 mph73%29.92 "HgN/A
Weather by CustomWeather, © 2016

See weather overviewHow to use our weather pages